{"data":{"norad_id":44060,"intl_designator":"2019-010D","name":"ONEWEB-0007","alt_names":[],"object_type":"PAYLOAD","status":"ACTIVE","operator":null,"country":"UK","launch_date":"2019-02-27","launch_site_code":"FRGUI","launch_vehicle":null,"mission":null,"orbit_class":"UNKNOWN","rcs_meters":null,"size_class":null,"mass_kg":null,"dimensions":null,"purposes":["comms"],"wikipedia_slug":null,"has_3d_model":false,"image_url":null,"decayed_at":null,"tle_current":{"epoch":"2026-05-24T20:05:44.491200Z","epoch_age_seconds":99475,"freshness":"FRESH","line1":"1 44060U 19010D   26144.83732050 -.00000016  00000+0 -76200-4 0  9997","line2":"2 44060  87.8989 263.8742 0001809  90.7273 269.4064 13.15546924348302","mean_motion":13.15546924,"eccentricity":0.0001809,"inclination_deg":87.8989,"raan_deg":263.8742,"arg_perigee_deg":90.7273,"mean_anomaly_deg":269.4064,"bstar":-7.62e-5,"rev_number":34830,"period_min":109.46017764396,"perigee_km":1200.4058067978,"apogee_km":1203.1482196878,"semimajor_km":7579.9140132428,"source":"CELESTRAK","updated_at":"2026-05-25T13:38:22.331393Z"}}}